JIM CREEK WA US current weather conditions

sailwx.info

Wind from 163 at 9 knots gusting 20

Air temperature 12.8° C
Dewpoint 12.0° C

Last reported at 2020-Sep-24 14:42 UTC.
Time now 2020-Sep-24 15:32 UTC

Location: N 48°11' W 122°02'.
View on Google Maps.

See reports from other nearby stations

  
Tides and Currents Weather Stations Pressure Air Temp Water Temp Dewpoint Dewpoint Depression Visibility Wind Speed Wind Dir Waves Ship Positions
date/time (UTC)wind fromknots sea level pressurealtimeterstation pressurevisibilityair tempwater tempwave heightnotes
2020-Sep-24 14:42 163 9 gusting 20 12.8
2020-Sep-24 13:42 160 10 gusting 26 13.3
2020-Sep-24 12:42 160 11 gusting 24 13.3
2020-Sep-24 11:42 174 7 gusting 23 13.3
2020-Sep-24 10:42 161 11 gusting 24 13.9
2020-Sep-24 09:42 156 9 gusting 24 13.9
2020-Sep-24 08:42 159 10 gusting 23 13.3
2020-Sep-24 07:42 157 10 gusting 25 14.4
2020-Sep-24 06:42 159 12 gusting 25 14.4
2020-Sep-24 05:42 163 6 gusting 17 14.4
2020-Sep-24 04:42 179 6 gusting 30 13.9
2020-Sep-24 03:42 160 11 gusting 23 14.4
2020-Sep-24 02:42 205 5 gusting 22 14.4
2020-Sep-24 01:42 195 5 gusting 24 15.0
2020-Sep-24 00:42 157 10 gusting 26 15.6
2020-Sep-23 23:42 161 9 gusting 28 15.6
2020-Sep-23 22:42 149 12 gusting 27 16.1
2020-Sep-23 21:42 161 6 gusting 22 15.6
2020-Sep-23 20:42 147 5 gusting 19 15.6
2020-Sep-23 19:42 151 7 gusting 21 16.1
2020-Sep-23 18:42 161 6 gusting 21 16.1
2020-Sep-23 17:42 173 6 gusting 18 16.7
2020-Sep-23 16:42 132 4 gusting 19 15.6
2020-Sep-23 15:42 163 6 gusting 21 17.2
2020-Sep-23 14:42 149 4 gusting 15 15.6
2020-Sep-23 13:42 246 2 gusting 13 13.3
2020-Sep-23 12:42 164 6 gusting 19 16.7
2020-Sep-23 11:42 151 4 gusting 17 18.3
2020-Sep-23 10:42 094 3 gusting 9 17.2
2020-Sep-23 09:42 174 1 gusting 9 17.8
2020-Sep-23 08:42 215 1 gusting 6 16.7
2020-Sep-23 07:42 103 1 gusting 6 16.7
2020-Sep-23 06:42 16.1
2020-Sep-23 05:42 155 3 gusting 7 16.7
2020-Sep-23 04:42 079 1 gusting 6 16.7
2020-Sep-23 03:42 105 3 gusting 8 16.7
2020-Sep-23 02:42 180 2 gusting 5 17.2
2020-Sep-23 01:42 128 2 gusting 5 17.8
2020-Sep-23 00:42 187 2 gusting 7 18.9
2020-Sep-22 23:42 214 4 gusting 11 20.6
2020-Sep-22 22:42 195 2 gusting 13 21.1
2020-Sep-22 21:42 211 6 gusting 11 20.6
2020-Sep-22 20:42 206 2 gusting 11 20.0
2020-Sep-22 19:42 182 2 gusting 7 17.2
2020-Sep-22 18:42 237 1 gusting 7 16.7
2020-Sep-22 17:42 224 1 gusting 4 15.0
2020-Sep-22 16:42 031 2 gusting 3 14.4
2020-Sep-22 15:42 12.8